Regional Weather Roundup
Issued by NWS Mobile, AL

Home | Current Version | Previous Version | Text Only | Print | Product List | Glossary On
Versions: 1 2 3 4 5 6 7 8 9 10 11 12 13 14 15 16 17 18 19 20 21 22 23 24 25 26 27 28 29 30 31 32 33 34 35 36 37 38 39 40 41 42 43 44 45 46 47 48 49 50
000
ASUS44 KMOB 261612
RWRMOB
REGIONAL WEATHER ROUNDUP
NATIONAL WEATHER SERVICE MOBILE AL
1000 AM CST SUN FEB 26 2017

NOTE: "FAIR" INDICATES FEW OR NO CLOUDS BELOW 12,000 FEET WITH NO
      SIGNIFICANT WEATHER AND/OR OBSTRUCTIONS TO VISIBILITY.

  * THESE STATIONS ARE PART OF THE UNIVERSITY OF SOUTH ALABAMA
    MESONET AND ARE NOT UNDER NWS OR FAA QUALITY CONTROL.

ALZ061>064-261700-
COASTAL ALABAMA

CITY           SKY/WX    TMP DP  RH WIND       PRES   REMARKS
MOBILE REG APT SUNNY     56  27  32 E7        30.23S
BROOKLEY FIELD SUNNY     55  30  38 E7        30.25S
USA CAMPUS*      N/A     55  27  33 E5        30.23S
DOG RIVER*       N/A     55  32  41 N7        31.06R


CITY           SKY/WX    TMP DP  RH WIND       PRES   REMARKS
GULF SHORES    SUNNY     57  30  35 E12G21    30.23S

$$

ALZ051>060-261700-
INTERIOR SOUTHWEST AND SOUTH CENTRAL ALABAMA

CITY           SKY/WX    TMP DP  RH WIND       PRES   REMARKS
GREENVILLE     SUNNY     55  24  30 S5        30.23R
EVERGREEN      SUNNY     54  26  34 MISG      30.24R
ATMORE*          N/A     54  27  35 E7        30.24S
ANDALUSIA/OPP  SUNNY     58  25  28 E6        30.23S
ANDALUSIA*       N/A     54  25  32 NE7       30.22S
FLORALA APT    SUNNY     56  26  31 SE7       30.25S
FLORALA*         N/A     55  27  33 N7        31.02S

$$

FLZ001>006-261700-
WESTERN FLORIDA PANHANDLE

CITY           SKY/WX    TMP DP  RH WIND       PRES   REMARKS
PENSACOLA      SUNNY     58  29  33 VRB7      30.23R
NAS PENSACOLA  SUNNY     58  33  39 NE12      30.23R
MILTON         LGT RAIN  57  25  29 E9        30.22S
WHTNG S FIELD  SUNNY     60  27  28 E10       30.23S


CITY           SKY/WX    TMP DP  RH WIND       PRES   REMARKS
JAY*             N/A     55  25  30 NE5       30.24R
DUKE FIELD     SUNNY     58  23  25 NE9       30.22R
CRESTVIEW      SUNNY     59  25  27 VRB6      30.24S
VALPARAISO     SUNNY     58  24  28 E8        30.23R
DESTIN         SUNNY     59  33  37 E9        30.23S

$$

MSZ076-079-261700-
INTERIOR SOUTHEAST MISSISSIPPI

CITY           SKY/WX    TMP DP  RH WIND       PRES   REMARKS
LEAKESVILLE*   NOT AVBL
AGRICOLA*        N/A     54  28  37 NE6       30.21S

$$

MARINE OBSERVATIONS

STATION/POSITION TIME  TEMP    WIND        PRES    WAVE
                       AIR SEA DIR/SP/G            HT/PER
                 (UTC) (F)     (DEG/KT/KT) (MB)    (FT/S)
PASCAGOULA       1548   57      70/  7/ 12 1022.9S
PETIT BOIS ISLND 1548   54      70/ 18/ 20 1023.7R
GRAND BAY        1445   52      70/ 13     1024.0R
KATRINA CUT      1530           80/ 17     1022.7R
CEDAR POINT      1500   52      70/ 15     1022.7
E DAUPHIN ISLAND 1500   52      70/ 16/ 18 1023.2R
MIDDLE BAY LIGHT 1530   52      70/ 11     1023.7R
USCG MOBILE BAY  1548   52 64   90/  8/  9 1024.4S
STATE DOCKS      1548   53 62              1023.7R
MEAHER PARK      1530   52      30/  6     1023.4F
WEEKS BAY        1445   51                   N/A
FORT MORGAN      1548   54      70/ 13/ 15   N/A
12 S ORANGE BCH  1550   58 68   80/ 17/ 21 1023.0R   4/ 5
PENSACOLA BAY    1548   57 65  140/  3/  6 1023.9R
67 S FORT MORGAN 1530   67      80/ 17     1022.0R

$$

SELECTED LOCATIONS ACROSS THE REGION

CITY           SKY/WX    TMP DP  RH WIND       PRES   REMARKS
NEW ORLEANS    SUNNY     60  44  55 E13       30.19R
GULFPORT       SUNNY     56  30  37 E9        30.22R
PASCAGOULA AP  SUNNY     58  25  28 NE10      30.22S
PASCAGOULA*    NOT AVBL
HATTIESBURG    SUNNY     52  26  36 SE10      30.23S
LAUREL         SUNNY     52  27  37 E5        30.24S
MERIDIAN       SUNNY     52  24  33 SE6       30.23S
JACKSON        SUNNY     51  25  36 SE8       30.20S
MONTGOMERY     SUNNY     54  23  30 E5        30.25S
TROY           SUNNY     52  26  36 MISG      30.25R
ASHFORD*         N/A     54  25  32 NE7       30.22S
DOTHAN         SUNNY     53  29  39 E9        30.27S
PANAMA CITY    SUNNY     59  27  29 NE7       30.22S

$$




USA.gov is the U.S. government's official web portal to all federal, state and local government web resources and services.